Wilson Norfolk — 9HA2466 — position and weather

sailwx.info

Track history (hours):
 
Tides and Currents Weather Stations Pressure Air Temp Water Temp Dewpoint Dewpoint Depression Visibility Wind Speed Wind Dir Waves Ship Positions

Wilson Norfolk

Last reported at 2014-Oct-25 15:31 UTC. Time now 2014-Oct-25 16:02 UTC.
Position N 52°03' W 010°44'.

Length 123 m; draft 5.4 m.

Type: Cargo ship. MMSI: 248678000.

Date/timePositionNaut miles runAvg speedWind from/ knotsBaromVisibWave heightAir tempDewpointWater temp
2014-Oct-25 15:31N 52°03' W 010°44'11 8.8
2014-Oct-25 14:20N 51°52' W 010°41'26 6.9
2014-Oct-25 10:33N 51°31' W 010°18'7 6.7
2014-Oct-25 09:32N 51°26' W 010°10'7 7.0
2014-Oct-25 08:33N 51°22' W 010°01'260 9.6
2014-Oct-24 05:33N 49°57' W 003°33'1110.8
2014-Oct-24 04:33N 49°59' W 003°17'1512.0
2014-Oct-24 03:17N 50°01' W 002°53'9611.9
2014-Oct-23 19:14N 50°26' W 000°29'1810.3
2014-Oct-23 17:27N 50°32' W 000°02'1111.9
2014-Oct-23 16:32N 50°35' E 000°15'1212.6
2014-Oct-23 15:33N 50°39' E 000°33'1212.1
2014-Oct-23 14:34N 50°45' E 000°50'1211.2
2014-Oct-23 13:30N 50°52' E 001°05'9 9.9
2014-Oct-23 12:33N 50°58' E 001°16'9 9.1
2014-Oct-23 11:34N 51°04' E 001°27'9 9.0
2014-Oct-23 10:33N 51°10' E 001°38'1110.5
2014-Oct-23 09:33N 51°18' E 001°49'1313.0
2014-Oct-23 08:33N 51°29' E 002°00'1413.6
2014-Oct-23 07:33N 51°39' E 002°14'1413.4
2014-Oct-23 06:30N 51°50' E 002°29'2412.1
2014-Oct-23 04:29N 52°08' E 002°55'9211.4
2014-Oct-22 20:25N 53°20' E 004°30'1012.0
2014-Oct-22 19:33N 53°28' E 004°40'1111.0
2014-Oct-22 18:33N 53°33' E 004°57'1010.3
2014-Oct-22 17:33N 53°37' E 005°13'10 9.9
2014-Oct-22 16:33N 53°41' E 005°28'4 3.8
2014-Oct-22 15:34N 53°41' E 005°35'8 7.7
2014-Oct-22 14:33N 53°43' E 005°47'10 9.6
2014-Oct-22 13:33N 53°46' E 006°03'59 4.8
2014-Oct-22 01:11N 53°57' E 007°42'3 4.0
2014-Oct-22 00:33N 53°55' E 007°44'3 3.4
2014-Oct-21 23:33N 53°53' E 007°48'6 6.0
2014-Oct-21 22:33N 53°52' E 007°58'9 9.1
2014-Oct-21 21:33N 53°46' E 008°10'1010.3
2014-Oct-21 20:33N 53°40' E 008°23'1010.0
2014-Oct-21 19:33N 53°32' E 008°34'9 9.1
2014-Oct-21 18:33N 53°23' E 008°30'1211.7
2014-Oct-21 17:33N 53°12' E 008°32'8 8.0
2014-Oct-21 16:33N 53°07' E 008°43'0 0.2
2014-Oct-21 15:31N 53°07' E 008°43'0 0.0
2014-Oct-21 14:31N 53°07' E 008°43'0 0.0
2014-Oct-21 13:31N 53°07' E 008°43'0 0.0
2014-Oct-21 12:31N 53°07' E 008°43'0 0.0
2014-Oct-21 11:31N 53°07' E 008°43'0 0.0
2014-Oct-21 10:31N 53°07' E 008°43'0 0.0
2014-Oct-21 09:31N 53°07' E 008°43'0 0.0
2014-Oct-21 08:31N 53°07' E 008°43'0 0.0
2014-Oct-21 07:31N 53°07' E 008°43'0 0.0
2014-Oct-21 06:31N 53°07' E 008°43'0 0.0
2014-Oct-21 05:31N 53°07' E 008°43'0 0.0
2014-Oct-21 04:31N 53°07' E 008°43'0 0.0
2014-Oct-21 03:31N 53°07' E 008°43'0 0.0
2014-Oct-21 02:22N 53°07' E 008°43'0 0.0
2014-Oct-21 01:31N 53°07' E 008°43'0 0.0
2014-Oct-21 00:28N 53°07' E 008°43'0 0.0
2014-Oct-20 23:31N 53°07' E 008°43'0 0.0
2014-Oct-20 22:28N 53°07' E 008°43'0 0.0
2014-Oct-20 21:31N 53°07' E 008°43'0 0.2
2014-Oct-20 20:33N 53°07' E 008°43'5 5.3
2014-Oct-20 19:33N 53°10' E 008°35'1010.3
2014-Oct-20 18:33N 53°20' E 008°30'1211.9
2014-Oct-20 17:33N 53°32' E 008°34'9 8.9
2014-Oct-20 16:33N 53°39' E 008°25'10 9.5
2014-Oct-20 15:33N 53°45' E 008°12'7 6.8
2014-Oct-20 14:33N 53°50' E 008°05'10 9.6
2014-Oct-20 13:33N 53°53' E 007°49'2 1.9
2014-Oct-20 12:31N 53°55' E 007°47'0 0.0
2014-Oct-20 11:31N 53°55' E 007°47'0 0.0
2014-Oct-20 10:25N 53°55' E 007°47'0 0.0
2014-Oct-20 09:25N 53°55' E 007°47'0 0.0
2014-Oct-20 08:31N 53°55' E 007°47'0 0.0
2014-Oct-20 07:31N 53°55' E 007°47'0 0.0
2014-Oct-20 06:28N 53°55' E 007°47'0 0.0
2014-Oct-20 05:25N 53°55' E 007°47'0 0.0
2014-Oct-20 04:22N 53°55' E 007°47'0 0.0
2014-Oct-20 03:25N 53°55' E 007°47'0 0.0
2014-Oct-20 02:31N 53°55' E 007°47'0 0.0
2014-Oct-20 01:22N 53°55' E 007°47'0 0.0
2014-Oct-20 00:28N 53°55' E 007°47'0 0.0
2014-Oct-19 23:19N 53°55' E 007°47'0 0.0
2014-Oct-19 22:28N 53°55' E 007°47'0 0.0
2014-Oct-19 21:31N 53°55' E 007°47'0 0.0
2014-Oct-19 20:31N 53°55' E 007°47'0 0.0
2014-Oct-19 19:28N 53°55' E 007°47'0 0.0
2014-Oct-19 18:31N 53°55' E 007°47'0 0.0
2014-Oct-19 17:31N 53°55' E 007°47'0 0.0
2014-Oct-19 16:19N 53°55' E 007°47'0 0.0
2014-Oct-19 15:31N 53°55' E 007°47'0 0.0
2014-Oct-19 14:28N 53°55' E 007°47'0 0.0
2014-Oct-19 13:31N 53°55' E 007°47'0 0.1
2014-Oct-19 12:22N 53°55' E 007°47'0 0.0
2014-Oct-19 11:31N 53°55' E 007°47'0 0.0
2014-Oct-19 10:31N 53°55' E 007°47'0 0.1
2014-Oct-19 09:28N 53°55' E 007°47'0 0.0
2014-Oct-19 08:16N 53°55' E 007°47'0 0.0
2014-Oct-19 07:25N 53°55' E 007°47'0 0.0
2014-Oct-19 06:25N 53°55' E 007°47'0 0.0
2014-Oct-19 05:25N 53°55' E 007°47'0 0.0
2014-Oct-19 04:31N 53°55' E 007°47'0 0.0
2014-Oct-19 03:31N 53°55' E 007°47'0 0.0
2014-Oct-19 02:25N 53°55' E 007°47'0 0.2
2014-Oct-19 01:33N 53°55' E 007°47'4711.0
2014-Oct-18 21:19N 53°45' E 006°30'1011.4
2014-Oct-18 20:26N 53°43' E 006°13'1011.6
2014-Oct-18 19:33N 53°39' E 005°57'1211.7
2014-Oct-18 18:33N 53°36' E 005°38'1211.9
2014-Oct-18 17:33N 53°32' E 005°19'1312.5
2014-Oct-18 16:33N 53°28' E 004°59'1212.2
2014-Oct-18 15:33N 53°21' E 004°42'6412.5
2014-Oct-18 10:25N 52°29' E 003°41'1612.6
2014-Oct-18 09:07N 52°17' E 003°22'812.5
2014-Oct-18 08:30N 52°12' E 003°13'1412.3
2014-Oct-18 07:22N 52°01' E 002°58'1311.9
2014-Oct-18 06:16N 51°51' E 002°44'911.4
2014-Oct-18 05:31N 51°45' E 002°36'1111.1
2014-Oct-18 04:32N 51°36' E 002°24'1110.8
2014-Oct-18 03:33N 51°28' E 002°13'1110.7
2014-Oct-18 02:33N 51°18' E 002°06'1010.4
2014-Oct-18 01:33N 51°11' E 001°55'10 9.6
2014-Oct-18 00:33N 51°03' E 001°47'1211.7
2014-Oct-17 23:33N 51°03' E 002°05'10 9.6
2014-Oct-17 22:33N 51°03' E 002°20'3 2.9
2014-Oct-17 21:33N 51°02' E 002°16'0 0.3
2014-Oct-17 20:20N 51°02' E 002°16'0 0.0
2014-Oct-17 19:32N 51°02' E 002°16'0 0.0
2014-Oct-17 18:23N 51°02' E 002°16'0 0.0
2014-Oct-17 17:29N 51°02' E 002°16'0 0.0
2014-Oct-17 16:29N 51°02' E 002°16'0 0.0
2014-Oct-17 15:32N 51°02' E 002°16'0 0.0
2014-Oct-17 14:32N 51°02' E 002°16'0 0.0
2014-Oct-17 13:32N 51°02' E 002°16'0 0.0
2014-Oct-17 12:17N 51°02' E 002°16'0 0.0
2014-Oct-17 11:29N 51°02' E 002°16'0 0.0
2014-Oct-17 10:32N 51°02' E 002°16'0 0.0
2014-Oct-17 09:23N 51°02' E 002°16'0 0.0
2014-Oct-17 08:32N 51°02' E 002°16'0 0.0
2014-Oct-17 07:29N 51°02' E 002°16'0 0.0
2014-Oct-17 06:29N 51°02' E 002°16'0 0.0
2014-Oct-17 05:32N 51°02' E 002°16'0 0.0
2014-Oct-17 04:32N 51°02' E 002°16'0 0.0
2014-Oct-17 03:32N 51°02' E 002°16'0 0.0
2014-Oct-17 02:23N 51°02' E 002°16'0 0.0
2014-Oct-17 01:26N 51°02' E 002°16'0 0.0
2014-Oct-17 00:32N 51°02' E 002°16'0 0.0
2014-Oct-16 23:29N 51°02' E 002°16'0 0.0
2014-Oct-16 22:32N 51°02' E 002°16'0 0.0
2014-Oct-16 21:26N 51°02' E 002°16'0 0.0
2014-Oct-16 20:32N 51°02' E 002°16'0 0.0
2014-Oct-16 19:20N 51°02' E 002°16'0 0.0
2014-Oct-16 18:26N 51°02' E 002°16'0 0.0
2014-Oct-16 16:32N 51°02' E 002°16'0 0.0
2014-Oct-16 15:33N 51°02' E 002°16'0 0.0
2014-Oct-16 14:32N 51°02' E 002°16'0 0.0
2014-Oct-16 13:32N 51°02' E 002°16'0 0.0
2014-Oct-16 12:26N 51°02' E 002°16'0 0.0
2014-Oct-16 11:26N 51°02' E 002°16'0 0.0
2014-Oct-16 10:32N 51°02' E 002°16'0 0.0
2014-Oct-16 09:32N 51°02' E 002°16'0 0.2
2014-Oct-16 08:33N 51°02' E 002°16'3 3.4
2014-Oct-16 07:33N 51°03' E 002°21'1110.6
2014-Oct-16 06:33N 51°03' E 002°04'1212.5
2014-Oct-16 05:33N 51°04' E 001°45'9 8.8
2014-Oct-16 04:33N 51°13' E 001°45'1111.4
2014-Oct-16 03:33N 51°24' E 001°53'1211.9
2014-Oct-16 02:33N 51°33' E 002°06'1212.3
2014-Oct-16 01:33N 51°42' E 002°19'3711.7
2014-Oct-15 22:22N 52°03' E 003°09'1011.8
2014-Oct-15 21:30N 52°03' E 003°25'1111.9
2014-Oct-15 20:33N 52°03' E 003°44'1110.8
2014-Oct-15 19:33N 52°00' E 004°00'1111.3
2014-Oct-15 18:33N 51°54' E 004°16'9 8.7
2014-Oct-15 17:34N 51°50' E 004°28'9 8.9
2014-Oct-15 16:34N 51°43' E 004°37'  
Track history (hours):
 
Tides and Currents Weather Stations Pressure Air Temp Water Temp Dewpoint Dewpoint Depression Visibility Wind Speed Wind Dir Waves Ship Positions

Wilson Norfolk

Last reported at 2014-Oct-25 15:31 UTC. Time now 2014-Oct-25 16:02 UTC.
Position N 52°03' W 010°44'.

Length 123 m; draft 5.4 m.

Type: Cargo ship. MMSI: 248678000.

Date/timePositionNaut miles runAvg speedWind from/ knotsBaromVisibWave heightAir tempDewpointWater temp
2014-Oct-25 15:31N 52°03' W 010°44'11 8.8
2014-Oct-25 14:20N 51°52' W 010°41'26 6.9
2014-Oct-25 10:33N 51°31' W 010°18'7 6.7
2014-Oct-25 09:32N 51°26' W 010°10'7 7.0
2014-Oct-25 08:33N 51°22' W 010°01'260 9.6
2014-Oct-24 05:33N 49°57' W 003°33'1110.8
2014-Oct-24 04:33N 49°59' W 003°17'1512.0
2014-Oct-24 03:17N 50°01' W 002°53'9611.9
2014-Oct-23 19:14N 50°26' W 000°29'1810.3
2014-Oct-23 17:27N 50°32' W 000°02'1111.9
2014-Oct-23 16:32N 50°35' E 000°15'1212.6
2014-Oct-23 15:33N 50°39' E 000°33'1212.1
2014-Oct-23 14:34N 50°45' E 000°50'1211.2
2014-Oct-23 13:30N 50°52' E 001°05'9 9.9
2014-Oct-23 12:33N 50°58' E 001°16'9 9.1
2014-Oct-23 11:34N 51°04' E 001°27'9 9.0
2014-Oct-23 10:33N 51°10' E 001°38'1110.5
2014-Oct-23 09:33N 51°18' E 001°49'1313.0
2014-Oct-23 08:33N 51°29' E 002°00'1413.6
2014-Oct-23 07:33N 51°39' E 002°14'1413.4
2014-Oct-23 06:30N 51°50' E 002°29'2412.1
2014-Oct-23 04:29N 52°08' E 002°55'9211.4
2014-Oct-22 20:25N 53°20' E 004°30'1012.0
2014-Oct-22 19:33N 53°28' E 004°40'1111.0
2014-Oct-22 18:33N 53°33' E 004°57'1010.3
2014-Oct-22 17:33N 53°37' E 005°13'10 9.9
2014-Oct-22 16:33N 53°41' E 005°28'4 3.8
2014-Oct-22 15:34N 53°41' E 005°35'8 7.7
2014-Oct-22 14:33N 53°43' E 005°47'10 9.6
2014-Oct-22 13:33N 53°46' E 006°03'59 4.8
2014-Oct-22 01:11N 53°57' E 007°42'3 4.0
2014-Oct-22 00:33N 53°55' E 007°44'3 3.4
2014-Oct-21 23:33N 53°53' E 007°48'6 6.0
2014-Oct-21 22:33N 53°52' E 007°58'9 9.1
2014-Oct-21 21:33N 53°46' E 008°10'1010.3
2014-Oct-21 20:33N 53°40' E 008°23'1010.0
2014-Oct-21 19:33N 53°32' E 008°34'9 9.1
2014-Oct-21 18:33N 53°23' E 008°30'1211.7
2014-Oct-21 17:33N 53°12' E 008°32'8 8.0
2014-Oct-21 16:33N 53°07' E 008°43'0 0.2
2014-Oct-21 15:31N 53°07' E 008°43'0 0.0
2014-Oct-21 14:31N 53°07' E 008°43'0 0.0
2014-Oct-21 13:31N 53°07' E 008°43'0 0.0
2014-Oct-21 12:31N 53°07' E 008°43'0 0.0
2014-Oct-21 11:31N 53°07' E 008°43'0 0.0
2014-Oct-21 10:31N 53°07' E 008°43'0 0.0
2014-Oct-21 09:31N 53°07' E 008°43'0 0.0
2014-Oct-21 08:31N 53°07' E 008°43'0 0.0
2014-Oct-21 07:31N 53°07' E 008°43'0 0.0
2014-Oct-21 06:31N 53°07' E 008°43'0 0.0
2014-Oct-21 05:31N 53°07' E 008°43'0 0.0
2014-Oct-21 04:31N 53°07' E 008°43'0 0.0
2014-Oct-21 03:31N 53°07' E 008°43'0 0.0
2014-Oct-21 02:22N 53°07' E 008°43'0 0.0
2014-Oct-21 01:31N 53°07' E 008°43'0 0.0
2014-Oct-21 00:28N 53°07' E 008°43'0 0.0
2014-Oct-20 23:31N 53°07' E 008°43'0 0.0
2014-Oct-20 22:28N 53°07' E 008°43'0 0.0
2014-Oct-20 21:31N 53°07' E 008°43'0 0.2
2014-Oct-20 20:33N 53°07' E 008°43'5 5.3
2014-Oct-20 19:33N 53°10' E 008°35'1010.3
2014-Oct-20 18:33N 53°20' E 008°30'1211.9
2014-Oct-20 17:33N 53°32' E 008°34'9 8.9
2014-Oct-20 16:33N 53°39' E 008°25'10 9.5
2014-Oct-20 15:33N 53°45' E 008°12'7 6.8
2014-Oct-20 14:33N 53°50' E 008°05'10 9.6
2014-Oct-20 13:33N 53°53' E 007°49'2 1.9
2014-Oct-20 12:31N 53°55' E 007°47'0 0.0
2014-Oct-20 11:31N 53°55' E 007°47'0 0.0
2014-Oct-20 10:25N 53°55' E 007°47'0 0.0
2014-Oct-20 09:25N 53°55' E 007°47'0 0.0
2014-Oct-20 08:31N 53°55' E 007°47'0 0.0
2014-Oct-20 07:31N 53°55' E 007°47'0 0.0
2014-Oct-20 06:28N 53°55' E 007°47'0 0.0
2014-Oct-20 05:25N 53°55' E 007°47'0 0.0
2014-Oct-20 04:22N 53°55' E 007°47'0 0.0
2014-Oct-20 03:25N 53°55' E 007°47'0 0.0
2014-Oct-20 02:31N 53°55' E 007°47'0 0.0
2014-Oct-20 01:22N 53°55' E 007°47'0 0.0
2014-Oct-20 00:28N 53°55' E 007°47'0 0.0
2014-Oct-19 23:19N 53°55' E 007°47'0 0.0
2014-Oct-19 22:28N 53°55' E 007°47'0 0.0
2014-Oct-19 21:31N 53°55' E 007°47'0 0.0
2014-Oct-19 20:31N 53°55' E 007°47'0 0.0
2014-Oct-19 19:28N 53°55' E 007°47'0 0.0
2014-Oct-19 18:31N 53°55' E 007°47'0 0.0
2014-Oct-19 17:31N 53°55' E 007°47'0 0.0
2014-Oct-19 16:19N 53°55' E 007°47'0 0.0
2014-Oct-19 15:31N 53°55' E 007°47'0 0.0
2014-Oct-19 14:28N 53°55' E 007°47'0 0.0
2014-Oct-19 13:31N 53°55' E 007°47'0 0.1
2014-Oct-19 12:22N 53°55' E 007°47'0 0.0
2014-Oct-19 11:31N 53°55' E 007°47'0 0.0
2014-Oct-19 10:31N 53°55' E 007°47'0 0.1
2014-Oct-19 09:28N 53°55' E 007°47'0 0.0
2014-Oct-19 08:16N 53°55' E 007°47'0 0.0
2014-Oct-19 07:25N 53°55' E 007°47'0 0.0
2014-Oct-19 06:25N 53°55' E 007°47'0 0.0
2014-Oct-19 05:25N 53°55' E 007°47'0 0.0
2014-Oct-19 04:31N 53°55' E 007°47'0 0.0
2014-Oct-19 03:31N 53°55' E 007°47'0 0.0
2014-Oct-19 02:25N 53°55' E 007°47'0 0.2
2014-Oct-19 01:33N 53°55' E 007°47'4711.0
2014-Oct-18 21:19N 53°45' E 006°30'1011.4
2014-Oct-18 20:26N 53°43' E 006°13'1011.6
2014-Oct-18 19:33N 53°39' E 005°57'1211.7
2014-Oct-18 18:33N 53°36' E 005°38'1211.9
2014-Oct-18 17:33N 53°32' E 005°19'1312.5
2014-Oct-18 16:33N 53°28' E 004°59'1212.2
2014-Oct-18 15:33N 53°21' E 004°42'6412.5
2014-Oct-18 10:25N 52°29' E 003°41'1612.6
2014-Oct-18 09:07N 52°17' E 003°22'812.5
2014-Oct-18 08:30N 52°12' E 003°13'1412.3
2014-Oct-18 07:22N 52°01' E 002°58'1311.9
2014-Oct-18 06:16N 51°51' E 002°44'911.4
2014-Oct-18 05:31N 51°45' E 002°36'1111.1
2014-Oct-18 04:32N 51°36' E 002°24'1110.8
2014-Oct-18 03:33N 51°28' E 002°13'1110.7
2014-Oct-18 02:33N 51°18' E 002°06'1010.4
2014-Oct-18 01:33N 51°11' E 001°55'10 9.6
2014-Oct-18 00:33N 51°03' E 001°47'1211.7
2014-Oct-17 23:33N 51°03' E 002°05'10 9.6
2014-Oct-17 22:33N 51°03' E 002°20'3 2.9
2014-Oct-17 21:33N 51°02' E 002°16'0 0.3
2014-Oct-17 20:20N 51°02' E 002°16'0 0.0
2014-Oct-17 19:32N 51°02' E 002°16'0 0.0
2014-Oct-17 18:23N 51°02' E 002°16'0 0.0
2014-Oct-17 17:29N 51°02' E 002°16'0 0.0
2014-Oct-17 16:29N 51°02' E 002°16'0 0.0
2014-Oct-17 15:32N 51°02' E 002°16'0 0.0
2014-Oct-17 14:32N 51°02' E 002°16'0 0.0
2014-Oct-17 13:32N 51°02' E 002°16'0 0.0
2014-Oct-17 12:17N 51°02' E 002°16'0 0.0
2014-Oct-17 11:29N 51°02' E 002°16'0 0.0
2014-Oct-17 10:32N 51°02' E 002°16'0 0.0
2014-Oct-17 09:23N 51°02' E 002°16'0 0.0
2014-Oct-17 08:32N 51°02' E 002°16'0 0.0
2014-Oct-17 07:29N 51°02' E 002°16'0 0.0
2014-Oct-17 06:29N 51°02' E 002°16'0 0.0
2014-Oct-17 05:32N 51°02' E 002°16'0 0.0
2014-Oct-17 04:32N 51°02' E 002°16'0 0.0
2014-Oct-17 03:32N 51°02' E 002°16'0 0.0
2014-Oct-17 02:23N 51°02' E 002°16'0 0.0
2014-Oct-17 01:26N 51°02' E 002°16'0 0.0
2014-Oct-17 00:32N 51°02' E 002°16'0 0.0
2014-Oct-16 23:29N 51°02' E 002°16'0 0.0
2014-Oct-16 22:32N 51°02' E 002°16'0 0.0
2014-Oct-16 21:26N 51°02' E 002°16'0 0.0
2014-Oct-16 20:32N 51°02' E 002°16'0 0.0
2014-Oct-16 19:20N 51°02' E 002°16'0 0.0
2014-Oct-16 18:26N 51°02' E 002°16'0 0.0
2014-Oct-16 16:32N 51°02' E 002°16'0 0.0
2014-Oct-16 15:33N 51°02' E 002°16'0 0.0
2014-Oct-16 14:32N 51°02' E 002°16'0 0.0
2014-Oct-16 13:32N 51°02' E 002°16'0 0.0
2014-Oct-16 12:26N 51°02' E 002°16'0 0.0
2014-Oct-16 11:26N 51°02' E 002°16'0 0.0
2014-Oct-16 10:32N 51°02' E 002°16'0 0.0
2014-Oct-16 09:32N 51°02' E 002°16'0 0.2
2014-Oct-16 08:33N 51°02' E 002°16'3 3.4
2014-Oct-16 07:33N 51°03' E 002°21'1110.6
2014-Oct-16 06:33N 51°03' E 002°04'1212.5
2014-Oct-16 05:33N 51°04' E 001°45'9 8.8
2014-Oct-16 04:33N 51°13' E 001°45'1111.4
2014-Oct-16 03:33N 51°24' E 001°53'1211.9
2014-Oct-16 02:33N 51°33' E 002°06'1212.3
2014-Oct-16 01:33N 51°42' E 002°19'3711.7
2014-Oct-15 22:22N 52°03' E 003°09'1011.8
2014-Oct-15 21:30N 52°03' E 003°25'1111.9
2014-Oct-15 20:33N 52°03' E 003°44'1110.8
2014-Oct-15 19:33N 52°00' E 004°00'1111.3
2014-Oct-15 18:33N 51°54' E 004°16'9 8.7
2014-Oct-15 17:34N 51°50' E 004°28'9 8.9
2014-Oct-15 16:34N 51°43' E 004°37'  

Dump ship's entire track history